Weather Roundup
Issued by NWS Springfield, MO

Home | Current Version | Previous Version | Text Only | Print | Product List | Glossary On
Versions: 1 2 3 4 5 6 7 8 9 10 11 12 13 14 15 16 17 18 19 20 21 22 23 24 25 26 27 28 29 30 31 32 33 34 35 36 37 38 39 40 41 42 43 44 45 46 47 48 49 50
000
NZUS99 KSGF 271707
HRRSGF

HOURLY WEATHER
NATIONAL WEATHER SERVICE SPRINGFIELD MO
1200 PM CDT WED AUG 27 2014

......SGF CWA......

CITY           SKY/WX    TMP DP  RH WIND       PRES   REMARKS
SPRINGFIELD    SUNNY     91  70  49 VRB5      30.13F HX  96
JOPLIN         MOSUNNY   91  69  48 SW10      30.12F HX  96
WEST PLAINS    MOSUNNY   90  69  50 VRB3      30.14F HX  94
ROLLA          MOSUNNY   91  70  49 VRB6      30.11F HX  96
OSAGE BEACH    MOSUNNY   90  72  55 NW10      30.12R HX  96
BRANSON        MOSUNNY   93  66  40 CALM      30.15F HX  96

......SURROUNDING SGF CWA......

CITY           SKY/WX    TMP DP  RH WIND       PRES   REMARKS
CHANUTE        SUNNY     92  67  43 VRB6      30.11F HX  95
PARSONS        SUNNY     92  68  45 W6        30.12F HX  96
COFFEYVILLE    SUNNY     90  70  51 VRB5      30.10F HX  95
EMPORIA        MOSUNNY   88  66  48 N6        30.11F HX  90
GROVE OK       SUNNY     88  72  58 CALM      30.12F HX  94
ROGERS AR      PTSUNNY   87  68  52 N3        30.15F HX  90
HARRISON AR    PTSUNNY   88  69  53 CALM      30.14F HX  92
NEAR YELLVILLE SUNNY     90  66  45 E3        30.11F HX  92

......KANSAS AND MISSOURI......

CITY           SKY/WX    TMP DP  RH WIND       PRES   REMARKS
KANSAS CTY INT CLOUDY    75  68  78 NE9       30.15F
DOWNTOWN KC    PTSUNNY   83  71  67 NE13      30.13S
COLUMBIA       PTSUNNY   87  74  64 N9        30.13R HX  95
SEDALIA        PTSUNNY   83  72  69 NE10      30.15S
ST JOSEPH      LGT RAIN  71  69  93 NE3       30.16F
ST LOUIS       PTSUNNY   91  72  53 CALM      30.10F HX  98
SPIRIT OF STL  MOSUNNY   90  72  55 CALM      30.08F HX  97
KIRKSVILLE     CLOUDY    75  69  81 NE5       30.17S
WICHITA        PTSUNNY   86  64  47 S5        30.11F
TOPEKA         MOSUNNY   84  72  67 E12       30.12F
OLATHE         MOSUNNY   84  72  67 E7        30.13S

......TENNESSEE......

CITY           SKY/WX    TMP DP  RH WIND       PRES   REMARKS
MEMPHIS        PTSUNNY   89  66  46 NE9       30.10F HX  91
NASHVILLE      PTSUNNY   89  70  53 NE8       30.11F HX  94

......ARKANSAS.......

CITY           SKY/WX    TMP DP  RH WIND       PRES   REMARKS
FAYETTEVILLE   PTSUNNY   88  69  53 N5        30.14F HX  92
FT SMITH       SUNNY     89  69  51 S6        30.09F HX  93
LITTLE ROCK    PTSUNNY   89  70  53 S5        30.09F HX  94

......OKLAHOMA.......

CITY           SKY/WX    TMP DP  RH WIND       PRES   REMARKS
TULSA          PTSUNNY   91  69  48 W5        30.09F HX  96
PONCA CITY     PTSUNNY   88  68  51 CALM      30.10F HX  91
MCALESTER      SUNNY     89  71  55 VRB6      30.10F HX  95
OKLAHOMA CITY  MOSUNNY   90  68  48 S3        30.10F HX  94

......IOWA............

CITY           SKY/WX    TMP DP  RH WIND       PRES   REMARKS
DES MOINES     CLOUDY    74  65  73 SE6       30.18R
QUAD CITIES    CLOUDY    77  63  61 NE5       30.16R

......ILLINOIS........

CITY           SKY/WX    TMP DP  RH WIND       PRES   REMARKS
QUINCY         CLOUDY    80  72  76 N5        30.14R
CHICAGO        PTSUNNY   78  57  48 CALM      30.14S




USA.gov is the U.S. government's official web portal to all federal, state and local government web resources and services.